IW0RDX-1 Foligno PG IT current weather conditions

sailwx.info

Wind from 116

Air temperature 21.7° C
Dewpoint 14.1° C

Last reported at 2019-Sep-16 21:00 UTC.
Time now 2019-Sep-16 22:12 UTC

Location: N 42°58' E 012°42'.
View on Google Maps.

See reports from other nearby stations

  
Tides and Currents Weather Stations Pressure Air Temp Water Temp Dewpoint Dewpoint Depression Visibility Wind Speed Wind Dir Waves Ship Positions
date/time (UTC)wind fromknots sea level pressurealtimeterstation pressurevisibilityair tempwater tempwave heightnotes
2019-Sep-16 21:00 116 21.7
2019-Sep-16 20:49 125 22.2
2019-Sep-16 20:44 125 0 gusting 4 22.2
2019-Sep-16 20:39 131 22.2
2019-Sep-16 20:35 134 22.8
2019-Sep-16 20:30 135 22.8
2019-Sep-16 20:25 151 23.3
2019-Sep-16 20:20 158 0 gusting 5 23.9
2019-Sep-16 20:09 196 24.4
2019-Sep-16 20:04 196 25.0
2019-Sep-16 19:59 196 25.0
2019-Sep-16 19:54 196 25.6
2019-Sep-16 19:49 196 0 gusting 7 25.6
2019-Sep-16 19:45 196 25.6
2019-Sep-16 19:40 196 25.6
2019-Sep-16 19:35 196 25.6
2019-Sep-16 19:30 196 1 gusting 6 25.6
2019-Sep-16 19:25 194 0 gusting 8 25.6
2019-Sep-16 19:19 192 2 gusting 9 25.6
2019-Sep-16 19:14 195 5 gusting 9 25.6
2019-Sep-16 19:09 229 0 gusting 6 25.6
2019-Sep-16 19:05 233 0 gusting 3 25.0
2019-Sep-16 19:00 233 25.0
2019-Sep-16 18:55 233 25.0
2019-Sep-16 18:50 233 25.6
2019-Sep-16 18:45 233 25.6
2019-Sep-16 18:40 233 26.1
2019-Sep-16 18:35 233 26.1
2019-Sep-16 18:30 233 26.1
2019-Sep-16 18:25 234 26.7
2019-Sep-16 18:20 234 1 gusting 6 26.7
2019-Sep-16 18:10 221 3 gusting 11 26.7
2019-Sep-16 18:04 240 5 gusting 11 26.7
2019-Sep-16 18:00 234 6 gusting 8 26.7
2019-Sep-16 17:49 300 27.2
2019-Sep-16 17:44 300 27.2
2019-Sep-16 17:40 299 27.8
2019-Sep-16 17:35 299 28.3
2019-Sep-16 17:30 299 28.3
2019-Sep-16 17:25 299 28.9
2019-Sep-16 17:20 299 28.9
2019-Sep-16 17:15 299 28.9
2019-Sep-16 17:10 299 28.9
2019-Sep-16 17:05 299 28.9
2019-Sep-16 17:00 299 28.9
2019-Sep-16 16:55 299 29.4
2019-Sep-16 16:50 299 29.4
2019-Sep-16 16:45 299 29.4
2019-Sep-16 16:39 299 29.4
2019-Sep-16 16:34 299 29.4
2019-Sep-16 16:29 299 29.4
2019-Sep-16 16:25 299 29.4
2019-Sep-16 16:20 299 29.4
2019-Sep-16 16:15 299 29.4
2019-Sep-16 16:10 299 29.4
2019-Sep-16 16:04 299 29.4
2019-Sep-16 15:59 299 29.4
2019-Sep-16 15:54 299 29.4
2019-Sep-16 15:50 299 29.4
2019-Sep-16 15:45 299 29.4
2019-Sep-16 15:40 299 29.4
2019-Sep-16 15:35 299 29.4
2019-Sep-16 15:30 299 29.4
2019-Sep-16 15:20 285 0 gusting 4 30.0
2019-Sep-16 15:15 216 30.0
2019-Sep-16 15:09 214 30.0
2019-Sep-16 15:04 214 30.0
2019-Sep-16 14:55 214 29.4
2019-Sep-16 14:49 214 2 gusting 6 29.4
2019-Sep-16 14:44 250 1 gusting 6 29.4
2019-Sep-16 14:40 316 29.4
2019-Sep-16 14:35 316 29.4
2019-Sep-16 14:30 275 29.4
2019-Sep-16 14:25 272 0 gusting 8 29.4
2019-Sep-16 14:20 275 6 gusting 8 29.4
2019-Sep-16 14:15 271 29.4
2019-Sep-16 14:10 271 0 gusting 8 29.4
2019-Sep-16 14:00 289 29.4
2019-Sep-16 13:54 290 7 gusting 10 30.0
2019-Sep-16 13:45 213 30.0
2019-Sep-16 13:40 213 29.4
2019-Sep-16 13:34 213 29.4
2019-Sep-16 13:29 213 3 gusting 8 29.4
2019-Sep-16 13:24 238 0 gusting 7 29.4
2019-Sep-16 13:20 255 3 gusting 7 29.4
2019-Sep-16 13:15 292 29.4
2019-Sep-16 13:10 292 2 gusting 8 29.4
2019-Sep-16 13:05 294 5 gusting 8 29.4
2019-Sep-16 12:55 227 29.4
2019-Sep-16 12:50 227 29.4
2019-Sep-16 12:45 231 1 gusting 6 29.4
2019-Sep-16 12:40 239 29.4
2019-Sep-16 12:34 239 1 gusting 6 29.4
2019-Sep-16 12:29 299 29.4
2019-Sep-16 12:24 299 28.9
2019-Sep-16 12:19 299 28.9
2019-Sep-16 12:14 298 3 gusting 9 28.9
2019-Sep-16 12:09 259 28.9
2019-Sep-16 12:05 254 28.9
2019-Sep-16 12:00 254 28.3
2019-Sep-16 11:55 254 28.3
2019-Sep-16 11:50 253 0 gusting 4 28.3
2019-Sep-16 11:45 242 28.3
2019-Sep-16 11:39 242 28.3
2019-Sep-16 11:34 242 27.8
2019-Sep-16 11:29 244 27.8
2019-Sep-16 11:25 244 3 gusting 8 27.8
2019-Sep-16 11:20 308 27.8
2019-Sep-16 11:15 309 27.8
2019-Sep-16 11:10 309 27.8
2019-Sep-16 11:04 309 27.2
2019-Sep-16 10:59 309 27.2
2019-Sep-16 10:54 309 0 gusting 4 26.7
2019-Sep-16 10:45 313 26.7
2019-Sep-16 10:40 314 1 gusting 5 26.7
2019-Sep-16 10:35 327 26.7
2019-Sep-16 10:30 328 0 gusting 5 26.7
2019-Sep-16 10:19 347 26.7
2019-Sep-16 10:14 347 26.1
2019-Sep-16 10:10 348 25.6
2019-Sep-16 10:05 348 25.0
2019-Sep-16 10:00 348 25.0
2019-Sep-16 09:55 348 25.0
2019-Sep-16 09:49 069 24.4
2019-Sep-16 09:44 069 24.4
2019-Sep-16 09:40 069 24.4
2019-Sep-16 09:35 069 23.9
2019-Sep-16 09:30 069 23.9
2019-Sep-16 09:25 069 23.3
2019-Sep-16 09:19 069 23.3
2019-Sep-16 09:14 067 23.3
2019-Sep-16 09:09 067 22.8
2019-Sep-16 09:04 066 22.8
2019-Sep-16 09:00 065 0 gusting 3 22.8
2019-Sep-16 08:55 066 0 gusting 3 22.2
2019-Sep-16 08:49 065 22.2
2019-Sep-16 08:44 065 21.7
2019-Sep-16 08:39 065 21.7
2019-Sep-16 08:35 065 21.7
2019-Sep-16 08:30 065 21.7
2019-Sep-16 08:24 065 21.7
2019-Sep-16 08:20 065 21.7
2019-Sep-16 08:15 065 21.1
2019-Sep-16 08:10 065 21.1
2019-Sep-16 08:05 065 20.6
2019-Sep-16 08:00 065 20.6
2019-Sep-16 07:55 065 20.0
2019-Sep-16 07:50 065 20.0
2019-Sep-16 07:44 065 20.0
2019-Sep-16 07:39 065 19.4
2019-Sep-16 07:35 065 19.4
2019-Sep-16 07:29 065 18.9
2019-Sep-16 07:20 065 18.3
2019-Sep-16 07:15 065 18.3
2019-Sep-16 07:10 065 17.8
2019-Sep-16 07:05 065 17.8
2019-Sep-16 07:00 065 17.8
2019-Sep-16 06:49 065 17.2
2019-Sep-16 06:44 065 17.2
2019-Sep-16 06:39 065 17.2
2019-Sep-16 06:35 065 17.2
2019-Sep-16 06:30 065 17.2
2019-Sep-16 06:25 065 17.2
2019-Sep-16 06:20 065 17.2
2019-Sep-16 06:14 065 17.2
2019-Sep-16 06:09 065 17.2
2019-Sep-16 06:05 065 17.2
2019-Sep-16 06:00 065 17.2
2019-Sep-16 05:55 065 16.7
2019-Sep-16 05:50 065 16.7
2019-Sep-16 05:44 065 16.7
2019-Sep-16 05:39 065 16.7
2019-Sep-16 05:35 065 16.7
2019-Sep-16 05:30 065 16.7
2019-Sep-16 05:25 065 16.7
2019-Sep-16 05:20 065 16.7
2019-Sep-16 05:15 065 16.7
2019-Sep-16 05:10 065 16.7
2019-Sep-16 04:59 065 16.7
2019-Sep-16 04:54 065 16.7
2019-Sep-16 04:49 065 16.7
2019-Sep-16 04:45 065 16.7
2019-Sep-16 04:40 065 16.7
2019-Sep-16 04:35 065 16.7
2019-Sep-16 04:30 065 16.7
2019-Sep-16 04:25 065 16.7
2019-Sep-16 04:20 065 16.7
2019-Sep-16 04:15 065 16.7
2019-Sep-16 04:09 065 16.7
2019-Sep-16 04:04 065 1 gusting 6 17.2
2019-Sep-16 03:59 066 0 gusting 5 17.2
2019-Sep-16 03:55 066 17.2
2019-Sep-16 03:50 067 1 gusting 6 17.2
2019-Sep-16 03:45 067 17.2
2019-Sep-16 03:40 067 17.2
2019-Sep-16 03:35 067 17.2
2019-Sep-16 03:29 067 1 gusting 6 17.2
2019-Sep-16 03:24 067 1 gusting 7 17.2
2019-Sep-16 03:20 066 0 gusting 5 17.2
2019-Sep-16 03:15 066 1 gusting 5 17.2
2019-Sep-16 03:10 066 0 gusting 4 17.2
2019-Sep-16 03:05 066 0 gusting 3 17.2
2019-Sep-16 03:00 066 17.2
2019-Sep-16 02:55 066 17.2
2019-Sep-16 02:50 066 17.2
2019-Sep-16 02:45 066 17.2
2019-Sep-16 02:35 066 17.2
2019-Sep-16 02:29 066 0 gusting 5 17.2
2019-Sep-16 02:24 066 0 gusting 4 17.8
2019-Sep-16 02:20 066 17.8
2019-Sep-16 02:15 066 17.8
2019-Sep-16 02:10 066 17.8
2019-Sep-16 02:04 066 17.8
2019-Sep-16 01:59 066 17.8
2019-Sep-16 01:54 066 17.8
2019-Sep-16 01:50 066 0 gusting 6 17.8
2019-Sep-16 01:45 067 1 gusting 6 18.3
2019-Sep-16 01:40 067 0 gusting 6 18.3
2019-Sep-16 01:35 067 18.3
2019-Sep-16 01:30 066 18.3
2019-Sep-16 01:24 066 18.3
2019-Sep-16 01:19 066 1 gusting 8 18.3
2019-Sep-16 01:15 066 3 gusting 8 18.3
2019-Sep-16 01:10 063 0 gusting 6 18.3
2019-Sep-16 01:05 063 0 gusting 6 18.3
2019-Sep-16 01:00 062 0 gusting 8 18.3
2019-Sep-16 00:55 062 2 gusting 8 18.3
2019-Sep-16 00:50 060 18.3
2019-Sep-16 00:40 060 1 gusting 5 18.3
2019-Sep-16 00:34 060 18.9
2019-Sep-16 00:29 060 18.9
2019-Sep-16 00:24 060 18.9
2019-Sep-16 00:20 060 18.9
2019-Sep-16 00:15 060 0 gusting 4 18.9
2019-Sep-16 00:10 060 0 gusting 6 18.9
2019-Sep-16 00:05 060 0 gusting 6 18.9
2019-Sep-15 23:59 059 18.9
2019-Sep-15 23:54 059 1 gusting 6 18.9
2019-Sep-15 23:50 060 18.9
2019-Sep-15 23:45 059 0 gusting 8 18.9
2019-Sep-15 23:40 058 1 gusting 6 19.4
2019-Sep-15 23:34 057 0 gusting 4 19.4
2019-Sep-15 23:29 057 19.4
2019-Sep-15 23:25 057 0 gusting 3 19.4
2019-Sep-15 23:20 057 19.4
2019-Sep-15 23:15 057 0 gusting 6 19.4
2019-Sep-15 23:10 059 0 gusting 6 19.4
2019-Sep-15 23:05 061 0 gusting 6 19.4
2019-Sep-15 23:00 063 19.4
2019-Sep-15 22:55 063 0 gusting 8 19.4
2019-Sep-15 22:50 063 1 gusting 8 20.0
2019-Sep-15 22:45 065 0 gusting 5 20.0
2019-Sep-15 22:40 065 1 gusting 7 20.0
2019-Sep-15 22:35 065 1 gusting 7 20.0
2019-Sep-15 22:25 062 0 gusting 8 20.0
2019-Sep-15 22:19 059 1 gusting 7 20.0
2019-Sep-15 22:14 061 0 gusting 7 20.0
2019-Sep-15 22:10 059 0 gusting 3 20.0
2019-Sep-15 22:05 059 20.0
2019-Sep-15 22:00 059 20.0
2019-Sep-15 21:55 059 0 gusting 8 20.6
2019-Sep-15 21:50 059 20.6
2019-Sep-15 21:45 060 0 gusting 7 20.6
2019-Sep-15 21:40 060 0 gusting 8 20.6
2019-Sep-15 21:35 061 2 gusting 8 20.6
2019-Sep-15 21:30 060 2 gusting 7 20.6
2019-Sep-15 21:24 061 2 gusting 9 21.1
2019-Sep-15 21:19 061 4 gusting 9 21.1
2019-Sep-15 21:15 061 4 gusting 9 21.1
2019-Sep-15 21:05 063 2 gusting 8 21.1
2019-Sep-15 21:00 063 1 gusting 8 21.7
2019-Sep-15 20:55 063 3 gusting 8 21.7
2019-Sep-15 20:50 063 0 gusting 8 21.7
2019-Sep-15 20:45 067 21.7
2019-Sep-15 20:40 069 22.2
2019-Sep-15 20:35 069 0 gusting 6 22.2
2019-Sep-15 20:24 069 0 gusting 8 22.2
2019-Sep-15 20:19 071 2 gusting 11 22.8
2019-Sep-15 20:15 071 0 gusting 11 22.8
2019-Sep-15 20:10 061 3 gusting 10 22.8
2019-Sep-15 20:05 063 3 gusting 10 22.8
2019-Sep-15 20:00 070 4 gusting 11 22.8
2019-Sep-15 19:55 065 5 gusting 12 22.8
2019-Sep-15 19:50 074 6 gusting 11 22.8
2019-Sep-15 19:44 071 4 gusting 9 22.8
2019-Sep-15 19:39 067 3 gusting 9 23.3
2019-Sep-15 19:34 066 2 gusting 7 23.3
2019-Sep-15 19:29 063 23.3
2019-Sep-15 19:25 061 4 gusting 11 23.3
2019-Sep-15 19:20 054 5 gusting 11 23.9
2019-Sep-15 19:15 061 4 gusting 12 23.9
2019-Sep-15 19:10 063 4 gusting 12 23.9
2019-Sep-15 19:05 061 4 gusting 12 23.9
2019-Sep-15 19:00 061 4 gusting 9 23.9
2019-Sep-15 18:55 063 3 gusting 9 23.9
2019-Sep-15 18:50 059 2 gusting 9 23.9
2019-Sep-15 18:45 063 1 gusting 8 23.9
2019-Sep-15 18:35 061 2 gusting 9 23.9
2019-Sep-15 18:29 065 2 gusting 8 24.4
2019-Sep-15 18:24 067 1 gusting 7 24.4
2019-Sep-15 18:10 069 1 gusting 6 25.0
2019-Sep-15 18:05 069 0 gusting 8 25.0
2019-Sep-15 17:54 132 0 gusting 6 25.6
2019-Sep-15 17:49 202 0 gusting 5 25.6
2019-Sep-15 17:45 223 25.6
2019-Sep-15 17:40 223 26.1
2019-Sep-15 17:35 224 0 gusting 4 26.1
2019-Sep-15 17:30 229 26.1
2019-Sep-15 17:25 231 26.7
2019-Sep-15 17:20 232 26.7
2019-Sep-15 17:14 233 26.7
2019-Sep-15 17:09 233 27.2
2019-Sep-15 17:05 233 27.2
2019-Sep-15 17:00 233 27.2
2019-Sep-15 16:55 233 27.2
2019-Sep-15 16:50 233 27.8
2019-Sep-15 16:44 233 27.8
2019-Sep-15 16:39 233 0 gusting 3 27.8
2019-Sep-15 16:35 233 27.8
2019-Sep-15 16:30 233 27.8
2019-Sep-15 16:25 233 28.3
2019-Sep-15 16:20 234 0 gusting 3 28.3
2019-Sep-15 16:00 234 28.3
2019-Sep-15 15:50 234 28.9
2019-Sep-15 15:35 234 28.9
2019-Sep-15 15:30 234 28.9
2019-Sep-15 15:25 234 28.9
2019-Sep-15 15:20 234 28.9
2019-Sep-15 15:15 234 1 gusting 6 28.9
2019-Sep-15 15:10 234 0 gusting 5 28.9
2019-Sep-15 15:05 233 28.9
2019-Sep-15 15:00 233 28.9
2019-Sep-15 14:55 233 28.9
2019-Sep-15 14:50 233 28.9
2019-Sep-15 14:45 233 28.9
2019-Sep-15 14:39 232 0 gusting 5 28.9
2019-Sep-15 14:35 211 28.9
2019-Sep-15 14:14 211 28.9
2019-Sep-15 14:09 211 2 gusting 5 28.9
2019-Sep-15 14:05 206 28.9
2019-Sep-15 14:00 206 0 gusting 6 28.9
2019-Sep-15 13:55 206 28.3
2019-Sep-15 13:50 206 4 gusting 7 28.3
2019-Sep-15 13:45 247 28.3
2019-Sep-15 13:40 247 2 gusting 6 28.3
2019-Sep-15 13:35 250 0 gusting 3 28.3
2019-Sep-15 13:30 252 28.3
2019-Sep-15 13:25 250 28.3
2019-Sep-15 13:19 250 0 gusting 6 28.3
2019-Sep-15 13:15 236 0 gusting 6 28.3
2019-Sep-15 13:10 236 28.9
2019-Sep-15 13:05 235 3 gusting 6 28.9
2019-Sep-15 13:00 251 0 gusting 4 28.9
2019-Sep-15 12:55 261 28.9
2019-Sep-15 12:50 261 28.9
2019-Sep-15 12:45 262 28.9
2019-Sep-15 12:40 208 28.9
2019-Sep-15 12:30 202 28.3
2019-Sep-15 12:25 202 28.3
2019-Sep-15 12:19 202 28.3
2019-Sep-15 12:14 202 0 gusting 4 28.3
2019-Sep-15 12:10 202 28.3
2019-Sep-15 12:05 202 28.3
2019-Sep-15 12:00 198 28.3
2019-Sep-15 11:55 198 28.3
2019-Sep-15 11:45 198 27.8
2019-Sep-15 11:40 198 27.8
2019-Sep-15 11:35 198 27.8
2019-Sep-15 11:30 197 3 gusting 7 27.8
2019-Sep-15 11:25 096 27.8
2019-Sep-15 11:19 096 27.8
2019-Sep-15 11:15 096 27.2
2019-Sep-15 11:10 096 27.2
2019-Sep-15 11:05 096 27.2
2019-Sep-15 10:40 096 26.1
2019-Sep-15 10:35 096 26.1
2019-Sep-15 10:30 096 25.6
2019-Sep-15 10:25 096 25.0
2019-Sep-15 10:19 096 25.0
2019-Sep-15 10:14 096 24.4
2019-Sep-15 10:10 096 24.4
2019-Sep-15 10:05 096 24.4
2019-Sep-15 10:00 096 24.4
2019-Sep-15 09:55 096 23.9
2019-Sep-15 09:50 096 23.9
2019-Sep-15 09:44 096 23.3
2019-Sep-15 09:39 096 23.3
2019-Sep-15 09:35 096 22.8
2019-Sep-15 09:30 096 22.8
2019-Sep-15 09:25 096 22.2
2019-Sep-15 09:20 096 22.2
2019-Sep-15 09:15 096 22.2
2019-Sep-15 09:05 096 21.7
2019-Sep-15 09:00 096 21.7
2019-Sep-15 08:55 096 21.7
2019-Sep-15 08:50 096 21.7
2019-Sep-15 08:45 096 21.1
2019-Sep-15 08:35 096 20.6
2019-Sep-15 08:30 096 20.6
2019-Sep-15 08:24 096 20.6
2019-Sep-15 08:20 096 20.6
2019-Sep-15 08:15 096 20.0
2019-Sep-15 08:10 096 20.0
2019-Sep-15 08:05 096 20.0
2019-Sep-15 07:54 096 19.4
2019-Sep-15 07:50 096 18.9
2019-Sep-15 07:45 096 18.9
2019-Sep-15 07:40 096 18.9
2019-Sep-15 07:35 096 18.3
2019-Sep-15 07:30 096 18.3
2019-Sep-15 07:25 096 17.8
2019-Sep-15 07:20 096 17.8
2019-Sep-15 07:15 096 17.8
2019-Sep-15 07:05 095 17.2
2019-Sep-15 07:00 095 17.2
2019-Sep-15 06:55 095 17.2
2019-Sep-15 06:50 059 17.2
2019-Sep-15 06:45 059 17.2
2019-Sep-15 06:40 058 17.2
2019-Sep-15 06:35 058 17.8
2019-Sep-15 06:29 058 17.8
2019-Sep-15 06:24 057 17.8
2019-Sep-15 06:19 057 17.8
2019-Sep-15 06:14 058 17.2
2019-Sep-15 06:10 058 17.2
2019-Sep-15 06:05 057 17.2
2019-Sep-15 06:00 058 16.7
2019-Sep-15 05:55 058 16.7
2019-Sep-15 05:45 058 15.6
2019-Sep-15 05:40 057 15.6
2019-Sep-15 05:34 057 15.0
2019-Sep-15 05:30 057 15.0
2019-Sep-15 05:25 057 15.0
2019-Sep-15 05:20 057 15.0
2019-Sep-15 05:15 057 15.6
2019-Sep-15 05:10 057 15.6
2019-Sep-15 05:05 057 15.6
2019-Sep-15 05:00 057 15.6
2019-Sep-15 04:50 057 16.1
2019-Sep-15 04:45 046 16.7
2019-Sep-15 04:39 045 16.7
2019-Sep-15 04:35 045 16.7
2019-Sep-15 04:30 045 16.7
2019-Sep-15 04:25 045 16.7
2019-Sep-15 04:20 045 16.7
2019-Sep-15 04:15 045 16.7
2019-Sep-15 04:10 045 16.7
2019-Sep-15 04:05 045 16.7
2019-Sep-15 04:00 045 17.2
2019-Sep-15 03:55 045 18.3
2019-Sep-15 03:50 045 19.4
2019-Sep-15 03:45 046 19.4
2019-Sep-15 03:35 048 2 gusting 11 18.9
2019-Sep-15 03:30 047 1 gusting 10 18.3
2019-Sep-15 03:25 041 1 gusting 8 17.2
2019-Sep-15 03:20 059 17.2
2019-Sep-15 03:10 059 17.8
2019-Sep-15 03:04 059 18.3
2019-Sep-15 02:59 059 18.9
2019-Sep-15 02:55 059 18.9
2019-Sep-15 02:50 053 1 gusting 6 18.9
2019-Sep-15 02:45 050 18.9
2019-Sep-15 02:40 050 18.9
2019-Sep-15 02:35 050 18.9
2019-Sep-15 02:30 050 18.9
2019-Sep-15 02:25 050 19.4
2019-Sep-15 02:20 050 19.4
2019-Sep-15 02:10 050 19.4
2019-Sep-15 02:00 050 19.4
2019-Sep-15 01:55 050 19.4
2019-Sep-15 01:50 067 0 gusting 7 19.4
2019-Sep-15 01:39 059 4 gusting 12 19.4
2019-Sep-15 01:35 071 4 gusting 12 20.0
2019-Sep-15 01:30 082 2 gusting 9 20.0
2019-Sep-15 01:25 068 1 gusting 10 20.0
2019-Sep-15 01:20 065 4 gusting 10 20.0
2019-Sep-15 01:09 067 1 gusting 6 20.0
2019-Sep-15 01:05 065 20.6
2019-Sep-15 01:00 067 20.6
2019-Sep-15 00:55 066 20.6
2019-Sep-15 00:50 066 1 gusting 7 20.6
2019-Sep-15 00:45 062 1 gusting 11 20.6
2019-Sep-15 00:40 055 4 gusting 11 20.6
2019-Sep-15 00:35 076 21.1
2019-Sep-15 00:30 061 0 gusting 9 20.6
2019-Sep-15 00:20 083 21.1
2019-Sep-15 00:15 083 21.7
2019-Sep-15 00:10 083 1 gusting 10 21.7
2019-Sep-15 00:05 080 0 gusting 10 21.7
2019-Sep-15 00:00 070 5 gusting 10 22.2
2019-Sep-14 23:54 071 3 gusting 10 22.2
2019-Sep-14 23:50 070 3 gusting 13 22.2
2019-Sep-14 23:45 049 4 gusting 13 22.2
2019-Sep-14 23:40 038 5 gusting 13 22.2
2019-Sep-14 23:35 051 5 gusting 13 22.2
2019-Sep-14 23:30 063 3 gusting 13 22.2
2019-Sep-14 23:25 065 5 gusting 17 22.2
2019-Sep-14 23:20 060 3 gusting 17 22.8
2019-Sep-14 23:15 069 6 gusting 15 22.8
2019-Sep-14 23:10 053 6 gusting 15 22.8
2019-Sep-14 23:04 074 7 gusting 19 22.8
2019-Sep-14 23:00 048 9 gusting 19 22.2
2019-Sep-14 22:55 053 6 gusting 16 22.2
2019-Sep-14 22:50 036 2 gusting 16 22.2
2019-Sep-14 22:45 062 5 gusting 13 22.2
2019-Sep-14 22:40 039 6 gusting 19 22.2
2019-Sep-14 22:35 061 8 gusting 19 22.2
2019-Sep-14 22:30 051 6 gusting 17 22.2
2019-Sep-14 22:25 051 10 gusting 19 22.2
2019-Sep-14 22:20 052 8 gusting 19 22.2
2019-Sep-14 22:10 065 10 gusting 19 22.8
2019-Sep-14 22:05 038 6 gusting 21 22.8
2019-Sep-14 22:00 045 10 gusting 21 22.8